Date,TemperatureHighF,TemperatureAvgF,TemperatureLowF,DewpointHighF,DewpointAvgF,DewpointLowF,HumidityHigh,HumidityAvg,HumidityLow,PressureMaxIn,PressureMinIn,WindSpeedMaxMPH,WindSpeedAvgMPH,GustSpeedMaxMPH,PrecipitationSumIn
2013-7-1,80,71,66,73,68,65,97,90,73,29.86,29.70,7,1,14,1.25
2013-7-2,75,70,66,72,68,65,98,96,88,30.03,29.85,5,0,14,1.42
2013-7-3,80,72,68,74,70,67,97,94,80,30.09,30.00,7,1,13,0.39
2013-7-4,80,72,68,75,70,67,98,94,77,30.13,30.02,9,1,13,0.59
2013-7-5,82,72,68,76,70,67,99,93,75,30.12,30.06,8,0,11,1.08
2013-7-6,84,75,68,73,70,67,98,87,66,30.11,29.98,8,2,15,0.24
2013-7-7,85,74,70,75,71,68,98,89,68,30.05,29.94,7,1,16,0.22
2013-7-8,87,76,68,75,70,67,98,84,56,30.07,29.96,2,0,16,0.02
2013-7-9,89,76,68,76,71,67,97,85,56,30.04,29.92,4,0,11,0.22
2013-7-10,86,74,69,77,71,68,98,91,74,30.00,29.84,7,0,10,0.06
2013-7-11,82,75,70,75,72,69,97,90,77,29.85,29.75,1,0,1,0.01
2013-7-12,82,72,65,73,69,63,97,91,69,29.92,29.76,11,1,24,1.88
2013-7-13,78,71,66,72,68,65,97,91,78,30.01,29.91,2,0,7,0.08
2013-7-14,82,74,70,74,71,68,97,90,72,30.17,29.99,9,2,14,0.46
2013-7-15,86,75,67,74,70,65,98,85,61,30.22,30.13,5,0,13,0.00
2013-7-16,91,77,65,76,69,63,98,80,46,30.20,30.09,5,0,8,0.01
2013-7-17,93,76,68,78,70,67,97,85,55,30.14,30.00,7,0,15,0.00
2013-7-18,91,78,67,77,72,65,97,83,57,30.07,29.93,4,0,15,0.01
2013-7-19,89,78,69,76,72,68,97,83,55,29.98,29.85,6,1,9,0.01
2013-7-20,84,74,70,77,71,69,97,92,71,29.90,29.81,7,0,8,0.12
2013-7-21,84,73,70,76,71,69,98,93,73,29.90,29.81,2,0,6,0.06
2013-7-22,86,76,70,75,72,69,97,87,64,29.88,29.70,6,1,11,0.21
2013-7-23,89,76,67,74,69,64,97,80,45,29.75,29.64,6,0,11,0.00
2013-7-24,89,79,68,74,71,65,97,77,56,29.75,29.65,7,0,16,0.05
2013-7-25,82,74,66,71,68,65,95,83,66,29.92,29.73,6,1,16,0.01
2013-7-26,83,73,66,72,68,65,96,85,66,29.98,29.88,7,0,12,0.00
2013-7-27,77,71,68,72,69,66,98,93,81,29.91,29.79,7,1,12,1.84
2013-7-28,82,74,68,73,69,66,97,87,69,29.89,29.80,1,0,10,0.10
2013-7-29,84,71,59,71,64,58,97,80,51,30.06,29.89,2,0,6,0.01
2013-7-30,81,71,63,71,64,60,93,81,63,30.13,30.03,0,0,0,0.00
2013-7-31,72,69,67,69,67,66,96,95,90,30.05,29.88,0,0,0,0.20